This demonstration page uses our WeatherBlox Daily Observations layout. Learn more.

Left ArrowRight Arrow

Hourly Observations for October 22, 2016

Temp ( °F °C ) Dew Point ( °F °C ) Humidity (%) Winds ( mph kmh ) Pressure ( in mb ) Visibility ( mi km ) Precip ( " mm )
12:53 am 00:53 Clear 42 5.6 36 2.2 79 79 ENE 3 6 29.83 1010 10 16 0.00 0.00
1:53 am 01:53 Clear 42 5.6 37 2.8 82 82 NE 3 6 29.80 1009 10 16 0.00 0.00
2:53 am 02:53 Clear 42 5.6 37 2.8 82 82 E 7 11 29.79 1009 10 16 0.00 0.00
3:53 am 03:53 Cloudy 42 5.6 36 2.2 79 79 ENE 6 9 29.78 1009 10 16 0.00 0.00
4:53 am 04:53 Cloudy 45 7.2 37 2.8 74 74 NW 14 22 29.81 1009 10 16 0.00 0.00
5:53 am 05:53 Partly Cloudy 46 7.8 38 3.3 73 73 NNE 5 7 29.79 1009 10 16 0.00 0.00
6:53 am 06:53 Cloudy with Light Rain 43 6.1 40 4.4 89 89 Calm 29.85 1011 10 16 0.00 0.03
7:16 am 07:16 Cloudy with Light Rain 45 7 39 4 81 81 NNE 3 6 29.85 1011 10 16 0.00 0.00
7:30 am 07:30 Cloudy with Light Rain 45 7 41 5 87 87 NE 5 7 29.85 1011 10 16 0.00 0.00
7:53 am 07:53 Cloudy with Light Rain 43 6.1 41 5 93 93 Calm 29.87 1011 10 16 0.02 0.51
8:53 am 08:53 Cloudy with Light Rain 43 6.1 42 5.6 97 97 SSE 12 19 29.87 1011 7 11 0.11 2.79
9:53 am 09:53 Mostly Cloudy 46 7.8 43 6.1 89 89 S 10 17 29.85 1011 10 16 0.01 0.25
10:53 am 10:53 Mostly Sunny 47 8.3 44 6.7 90 90 WSW 8 13 29.86 1011 10 16 0.00 0.00
11:53 am 11:53 Partly Cloudy 52 11.1 45 7.2 77 77 WSW 24 39 29.88 1012 10 16 0.00 0.00
12:53 pm 12:53 Cloudy 52 11.1 44 6.7 75 75 WSW 15 24 29.90 1013 10 16 0.00 0.00
1:53 pm 13:53 Sunny 56 13.3 40 4.4 55 55 WNW 13 20 29.91 1013 10 16 0.00 0.00
2:53 pm 14:53 Mostly Sunny 56 13.3 41 5 57 57 SW 9 15 29.90 1013 10 16 0.00 0.00
3:53 pm 15:53 Mostly Sunny 55 12.8 41 5 59 59 WNW 5 7 29.92 1013 10 16 0.00 0.00
4:53 pm 16:53 Partly Cloudy 53 11.7 40 4.4 61 61 WSW 6 9 29.94 1014 10 16 0.00 0.00
5:53 pm 17:53 Sunny 49 9.4 37 2.8 64 64 WSW 7 11 29.96 1014 10 16 0.00 0.00
6:53 pm 18:53 Mostly Clear 44 6.7 36 2.2 73 73 W 5 7 29.99 1016 10 16 0.00 0.00
7:53 pm 19:53 Mostly Cloudy 43 6.1 36 2.2 76 76 WNW 5 7 30.03 1017 10 16 0.00 0.00
8:53 pm 20:53 Clear 44 6.7 35 1.7 71 71 Calm 30.04 1017 10 16 0.00 0.00
9:53 pm 21:53 Clear 37 2.8 33 0.6 86 86 SSW 3 6 30.07 1018 10 16 0.00 0.00
10:53 pm 22:53 Clear 38 3.3 31 -0.6 76 76 WSW 6 9 30.08 1019 10 16 0.00 0.00
11:53 pm 23:53 Clear 36 2.2 30 -1.1 79 79 SSW 6 9 30.09 1019 10 16 0.00 0.00

Powered by AerisWeather